User: anonymous
Location: Caltech
(34.1382°N, 118.1253°W)
Time: 23:45:47
(UTC-07:00)
Language:

Iridium 62 - Orbit

View from above orbital plane
View from above orbital plane
View from above satellite
View from above satellite

Ground track
Ground track

The orbit data is extracted from the following two-line orbital elements,

1 25285U 98021A   14244.26774708  .00000212  00000-0  68508-4 0  9051
2 25285 086.3940 290.2295 0002473 108.8201 251.3264 14.34218901858837
Epoch (UTC): 01 September 2014 06:25:33
Eccentricity: 0.0002473
inclination: 86.3940°
perigee height: 776 km
apogee height: 779 km
right ascension of ascending node: 290.2295°
argument of perigee: 108.8201°
revolutions per day: 14.34218901
mean anomaly at epoch: 251.3264°
orbit number at epoch: 85883

The dashed part of the orbit path shows where the satellite is in the earth's shadow,  

DLR